When you browse on this site, cookies collect data to enhance your experience and personalize the content and advertising you see.
Visit our Privacy Policy to learn more. By continuing to use the site, you agree to this use of cookies and data.
  • In Schweiz
  • Länderverzeichnis
  • Für 7 Tage
  • Wassertemperatur
  • Wetterkarte
  • Widgets
  • user-avatar
    Anmelden

    Stündliche Wetter Portsmut

    Heute, 29 Mai, Freitag

    Zeit Temperatur Niederschläge Wind Luftdruck Luftfeuchtigkeit
    00:00 +25°C° 0 mm 5 m/S 763 mmHg 90%
    01:00 +25°C° 0 mm 5 m/S 763 mmHg 91%
    02:00 +23°C° 0 mm 4 m/S 763 mmHg 92%
    03:00 +23°C° 0 mm 4 m/S 763 mmHg 93%
    04:00 +23°C° 0 mm 4 m/S 763 mmHg 94%
    05:00 +25°C° 0 mm 4 m/S 763 mmHg 91%
    06:00 +26°C° 0 mm 4 m/S 763 mmHg 88%
    07:00 +26°C° 0 mm 5 m/S 763 mmHg 85%
    08:00 +27°C° 0.2 mm 5 m/S 763 mmHg 80%
    09:00 +28°C° 0.2 mm 5 m/S 763 mmHg 75%
    10:00 +29°C° 0.2 mm 5 m/S 763 mmHg 71%
    11:00 +30°C° 0.1 mm 5 m/S 762 mmHg 70%
    12:00 +30°C° 0.1 mm 5 m/S 762 mmHg 69%
    13:00 +30°C° 0.1 mm 5 m/S 762 mmHg 68%
    14:00 +29°C° 1.5 mm 5 m/S 762 mmHg 73%
    15:00 +27°C° 1.5 mm 5 m/S 761 mmHg 78%
    16:00 +25°C° 1.5 mm 5 m/S 761 mmHg 83%
    17:00 +25°C° 0 mm 5 m/S 761 mmHg 84%
    18:00 +25°C° 0 mm 5 m/S 761 mmHg 84%
    19:00 +23°C° 0 mm 4 m/S 761 mmHg 84%
    20:00 +23°C° 0 mm 4 m/S 761 mmHg 86%
    21:00 +23°C° 0 mm 4 m/S 761 mmHg 88%
    22:00 +23°C° 0 mm 4 m/S 761 mmHg 90%
    23:00 +23°C° 0.3 mm 4 m/S 761 mmHg 90%

    Morgen, 30 Mai, Samstag

    Zeit Temperatur Niederschläge Wind Luftdruck Luftfeuchtigkeit
    00:00 +22°C° 0.3 mm 4 m/S 761 mmHg 89%
    01:00 +22°C° 0.3 mm 4 m/S 761 mmHg 89%
    02:00 +22°C° 0 mm 4 m/S 760 mmHg 89%
    03:00 +22°C° 0 mm 4 m/S 760 mmHg 90%
    04:00 +22°C° 0 mm 3 m/S 759 mmHg 90%
    05:00 +22°C° 0 mm 3 m/S 759 mmHg 90%
    06:00 +22°C° 0 mm 3 m/S 760 mmHg 89%
    07:00 +24°C° 0 mm 3 m/S 760 mmHg 88%
    08:00 +25°C° 0.3 mm 3 m/S 760 mmHg 83%
    09:00 +27°C° 0.3 mm 3 m/S 759 mmHg 77%
    10:00 +28°C° 0.3 mm 3 m/S 759 mmHg 72%
    11:00 +28°C° 1.4 mm 2 m/S 759 mmHg 70%
    12:00 +29°C° 1.4 mm 2 m/S 759 mmHg 67%
    13:00 +29°C° 1.4 mm 2 m/S 759 mmHg 65%
    14:00 +29°C° 0.6 mm 2 m/S 758 mmHg 67%
    15:00 +28°C° 0.6 mm 3 m/S 758 mmHg 68%
    16:00 +27°C° 0.6 mm 3 m/S 758 mmHg 70%
    17:00 +27°C° 0.1 mm 3 m/S 758 mmHg 69%
    18:00 +26°C° 0.1 mm 3 m/S 758 mmHg 68%
    19:00 +25°C° 0.1 mm 3 m/S 758 mmHg 66%
    20:00 +24°C° 0 mm 3 m/S 759 mmHg 65%
    21:00 +24°C° 0 mm 2 m/S 759 mmHg 63%
    22:00 +23°C° 0 mm 2 m/S 759 mmHg 61%
    23:00 +22°C° 0 mm 3 m/S 759 mmHg 63%

    übermorgen, 31 Mai, Sonntag

    Zeit Temperatur Niederschläge Wind Luftdruck Luftfeuchtigkeit
    00:00 +21°C° 0 mm 4 m/S 759 mmHg 65%
    01:00 +21°C° 0 mm 4 m/S 760 mmHg 67%
    02:00 +20°C° 0 mm 5 m/S 760 mmHg 67%
    03:00 +20°C° 0 mm 6 m/S 760 mmHg 67%
    04:00 +19°C° 0 mm 6 m/S 760 mmHg 67%
    05:00 +18°C° 0 mm 7 m/S 761 mmHg 65%
    06:00 +17°C° 0 mm 7 m/S 762 mmHg 63%
    07:00 +17°C° 0 mm 7 m/S 763 mmHg 62%
    08:00 +18°C° 0 mm 7 m/S 763 mmHg 55%
    09:00 +20°C° 0 mm 6 m/S 763 mmHg 49%
    10:00 +20°C° 0 mm 6 m/S 764 mmHg 42%
    11:00 +21°C° 0 mm 6 m/S 764 mmHg 40%
    12:00 +22°C° 0 mm 6 m/S 764 mmHg 39%
    13:00 +22°C° 0 mm 5 m/S 764 mmHg 37%
    14:00 +22°C° 0 mm 5 m/S 763 mmHg 38%
    15:00 +22°C° 0 mm 5 m/S 763 mmHg 39%
    16:00 +22°C° 0 mm 5 m/S 762 mmHg 40%
    17:00 +21°C° 0 mm 4 m/S 763 mmHg 45%
    18:00 +20°C° 0 mm 4 m/S 763 mmHg 50%
    19:00 +18°C° 0 mm 4 m/S 763 mmHg 55%
    20:00 +18°C° 0 mm 3 m/S 764 mmHg 56%
    21:00 +18°C° 0 mm 3 m/S 764 mmHg 56%
    22:00 +17°C° 0 mm 3 m/S 764 mmHg 57%
    23:00 +17°C° 0 mm 3 m/S 764 mmHg 58%

    1 Juni, Montag

    Zeit Temperatur Niederschläge Wind Luftdruck Luftfeuchtigkeit
    00:00 +17°C° 0 mm 3 m/S 764 mmHg 58%
    01:00 +16°C° 0 mm 2 m/S 764 mmHg 59%
    02:00 +16°C° 0 mm 3 m/S 765 mmHg 61%
    03:00 +16°C° 0 mm 3 m/S 765 mmHg 64%
    04:00 +14°C° 0 mm 3 m/S 765 mmHg 67%
    05:00 +16°C° 0 mm 3 m/S 766 mmHg 65%
    06:00 +17°C° 0 mm 3 m/S 766 mmHg 63%
    07:00 +17°C° 0 mm 3 m/S 767 mmHg 61%
    08:00 +19°C° 0 mm 4 m/S 767 mmHg 54%
    09:00 +20°C° 0 mm 4 m/S 768 mmHg 46%
    10:00 +21°C° 0 mm 4 m/S 768 mmHg 39%
    11:00 +22°C° 0 mm 3 m/S 768 mmHg 37%
    12:00 +22°C° 0 mm 3 m/S 767 mmHg 35%
    13:00 +24°C° 0 mm 2 m/S 767 mmHg 33%
    14:00 +24°C° 0 mm 2 m/S 766 mmHg 33%
    15:00 +24°C° 0 mm 2 m/S 766 mmHg 34%
    16:00 +24°C° 0 mm 2 m/S 766 mmHg 34%
    17:00 +23°C° 0 mm 2 m/S 766 mmHg 41%
    18:00 +20°C° 0 mm 2 m/S 766 mmHg 47%
    19:00 +18°C° 0 mm 2 m/S 767 mmHg 53%
    20:00 +17°C° 0 mm 2 m/S 767 mmHg 55%
    21:00 +16°C° 0 mm 2 m/S 767 mmHg 57%
    22:00 +16°C° 0 mm 2 m/S 767 mmHg 58%
    23:00 +15°C° 0 mm 2 m/S 767 mmHg 58%

    2 Juni, Dienstag

    Zeit Temperatur Niederschläge Wind Luftdruck Luftfeuchtigkeit
    00:00 +14°C° 0 mm 3 m/S 767 mmHg 58%
    01:00 +14°C° 0 mm 3 m/S 767 mmHg 58%
    02:00 +14°C° 0 mm 3 m/S 767 mmHg 62%
    03:00 +14°C° 0 mm 3 m/S 767 mmHg 65%
    04:00 +13°C° 0 mm 3 m/S 768 mmHg 69%
    05:00 +14°C° 0 mm 3 m/S 768 mmHg 69%
    06:00 +16°C° 0 mm 3 m/S 768 mmHg 69%
    07:00 +17°C° 0 mm 3 m/S 768 mmHg 70%
    08:00 +19°C° 0 mm 3 m/S 768 mmHg 62%
    09:00 +21°C° 0 mm 3 m/S 768 mmHg 54%
    10:00 +25°C° 0 mm 2 m/S 768 mmHg 47%
    11:00 +25°C° 0 mm 2 m/S 768 mmHg 44%
    12:00 +26°C° 0 mm 3 m/S 767 mmHg 42%
    13:00 +27°C° 0 mm 3 m/S 767 mmHg 39%
    14:00 +27°C° 0 mm 3 m/S 767 mmHg 41%
    15:00 +27°C° 0 mm 3 m/S 766 mmHg 44%
    16:00 +27°C° 0 mm 3 m/S 766 mmHg 46%
    17:00 +26°C° 0 mm 3 m/S 766 mmHg 52%
    18:00 +25°C° 0 mm 3 m/S 766 mmHg 57%
    19:00 +22°C° 0 mm 3 m/S 766 mmHg 63%
    20:00 +22°C° 0 mm 4 m/S 766 mmHg 61%
    21:00 +21°C° 0 mm 5 m/S 766 mmHg 59%
    22:00 +21°C° 0 mm 6 m/S 766 mmHg 58%
    23:00 +20°C° 0 mm 6 m/S 766 mmHg 57%

    3 Juni, Mittwoch

    Zeit Temperatur Niederschläge Wind Luftdruck Luftfeuchtigkeit
    00:00 +20°C° 0 mm 6 m/S 765 mmHg 57%
    01:00 +20°C° 0 mm 6 m/S 765 mmHg 57%
    02:00 +20°C° 0 mm 6 m/S 765 mmHg 57%
    03:00 +20°C° 0 mm 6 m/S 765 mmHg 58%
    04:00 +20°C° 0 mm 6 m/S 765 mmHg 58%
    05:00 +20°C° 0 mm 6 m/S 765 mmHg 60%
    06:00 +20°C° 0 mm 6 m/S 765 mmHg 62%
    07:00 +20°C° 0 mm 6 m/S 765 mmHg 64%
    08:00 +21°C° 0 mm 6 m/S 765 mmHg 62%
    09:00 +22°C° 0 mm 6 m/S 765 mmHg 61%
    10:00 +24°C° 0 mm 6 m/S 765 mmHg 59%
    11:00 +26°C° 0 mm 6 m/S 764 mmHg 57%
    12:00 +27°C° 0 mm 6 m/S 764 mmHg 55%
    13:00 +28°C° 0 mm 7 m/S 763 mmHg 53%
    14:00 +28°C° 0 mm 7 m/S 763 mmHg 54%
    15:00 +28°C° 0 mm 7 m/S 762 mmHg 55%
    16:00 +28°C° 0 mm 7 m/S 762 mmHg 57%
    17:00 +27°C° 0 mm 7 m/S 762 mmHg 61%
    18:00 +26°C° 0 mm 6 m/S 761 mmHg 64%
    19:00 +24°C° 0 mm 6 m/S 761 mmHg 68%
    20:00 +24°C° 0 mm 6 m/S 761 mmHg 68%
    21:00 +23°C° 0 mm 7 m/S 762 mmHg 68%
    22:00 +23°C° 0 mm 7 m/S 762 mmHg 69%
    23:00 +22°C° 0 mm 7 m/S 761 mmHg 69%
    Mehr zeigen